Погода в Лискирде

Великобритания     50°27′12″N   4°27′53″W
темп.,
°C
ветер,
м/с
пор.,
м/с
влажн.,
%
обл.,
%
осадки,
мм/ч
давл.,
гПа
погр.,
м
9 мая, вс
вс901:00+11ююз61299100 3.5 996740
04:00+8ююз71392100 2.1 996520
07:00+10ююз7139699 2.1 995760
10:00+11ю81290100 0.1 995932
13:00+11ю81390100 0.3 9951022
16:00+12ююз91283100 0.4 9941074
19:00+11ю8129280 0.6 994904
22:00+10ююз81394100 0.2 993732
10 мая, пн
пн1001:00+9ююз8139394 0.3 993781
04:00+9ююз8139296 0.3 994771
07:00+9ююз9149094 0.4 995892
10:00+9ююз10148796 0.4 9961100
13:00+11ююз10138284 1.1 9981378
16:00+12юз9127025 0.4 10001536
19:00+10ююз68785 0.6 10021082
22:00+6ю389421 0.1 1004160
11 мая, вт
вт1101:00+6ююв379682 0.2 1004160
04:00+5ююв49955 0.3 1003214
07:00+7ююв5109324 0.6 1003546
10:00+9юв8128690 0.9 10021209
13:00+10юв568782 2.8 999872
16:00+11з9117774 1.4 10021215
19:00+9юз6119482 1.7 1004720
22:00+9юз6119589 0.6 1006681
12 мая, ср
ср1201:00+8юз5119775 1.0 1006595
04:00+8юз5109596 0.1 1006524
07:00+8юз5109569 0.1 1007569
10:00+11юз798572 0.6 10071018
13:00+11юз7108296 1.8 10081317
16:00+11юз7108592 1.5 10081137
19:00+10юз479235 2.9 1008523
22:00+5зсз34955 0.2 101070
13 мая, чт
чт1301:00+4зюз11966 0.2 101014
04:00+4ю11974 0.0 101013
07:00+6ююв119667 0.0 100947
10:00+11ююз22789 0.0 1009698
13:00+13ююз227178 0.8 10091125
16:00+12зюз237986 2.4 1009596
19:00+11сз348333 3.7 1010445
22:00+6ссз23925 0.0 101126